Location: Newark
(45.5000°N, 11.4167°E)
Time: 12:49:49
(UTC+00:00)

Transit 2A Rocket - Pass Details

Date: 28 August 2019
Orbit: 592 x 911 km, 66.7° (Epoch: 22 September)

Event Time Altitude Azimuth Distance (km) Brightness Sun altitude
Rises 18:48:24 0° 257° (WSW) 3,377 9.3 -8.8°
Reaches altitude 10° 18:51:35 10° 274° (W) 2,389 8.9 -9.3°
Maximum altitude 18:55:34 20° 321° (NW) 1,721 7.8 -10.0°
Drops below altitude 10° 18:59:20 10° 8° (N) 2,237 7.6 -10.6°
Sets 19:02:12 0° 26° (NNE) 3,098 8.2 -11.0°
